Location: Paderno d�Adda
(45.6667°N, 9.4333°E)
Time: 14:29:00
(UTC+00:00)

Cosmos 2227 - Pass Details

Date: 19 September 2020
Orbit: 836 x 859 km, 71.0° (Epoch: 29 October)

Event Time Altitude Azimuth Distance (km) Brightness Sun altitude
Rises 17:43:29 0° 197° (SSW) 3,418 7.5 -4.0°
Reaches altitude 10° 17:45:56 10° 195° (SSW) 2,484 6.8 -4.5°
Maximum altitude 17:51:37 71° 113° (ESE) 904 4.2 -5.5°
Drops below altitude 10° 17:57:18 10° 30° (NNE) 2,489 6.4 -6.4°
Sets 17:59:46 0° 28° (NNE) 3,425 7.2 -6.9°
